Location: Grand Lay
(47.3253°N, 0.9468°E)
Time: 21:45:55
(UTC+00:00)

Cosmos 2074 Rocket - Pass Details

Date: 18 January 2026
Orbit: 965 x 986 km, 82.9° (Epoch: 18 February)

Event Time Altitude Azimuth Distance (km) Brightness Sun altitude
Rises 05:13:14 0° 188° (S) 3,681 7.0 -23.8°
Reaches altitude 10° 05:15:44 10° 188° (S) 2,737 6.3 -23.4°
Maximum altitude 05:22:02 86° 278° (W) 994 3.9 -22.4°
Drops below altitude 10° 05:28:22 10° 8° (N) 2,749 6.4 -21.3°
Sets 05:30:54 0° 9° (N) 3,699 7.1 -20.9°
